sat.trackr.live / text

‹ back to catalog

STARLINK-34953

NORAD 65240 · 2025-179F

PAYLOAD ACTIVE UNKNOWN

§ Identity

Operator
Country
US
Launch date
2025-08-18
Launch site
AFWTR
Launch vehicle
Mass (kg)
RCS (m²)

Purposes: comms

External: N2YO · Heavens-Above · Gunter

§ Orbital elements

Epoch: 2026-05-25T02:21:21.628800Z

Period
95.64 min
Inclination
97.4457°
Eccentricity
0.0001702
Mean motion
15.05656639 rev/d
Perigee alt
548.3 km
Apogee alt
550.7 km
Semi-major
6,927.6 km
B*
3.0689e-4
RAAN
187.8828°
Arg perigee
139.0679°
Mean anomaly
221.0676°
Rev number
4,347

§ Raw data

STARLINK-349531 65240U 25179F   26145.09816700  .00004373  00000+0  30689-3 0  99952 65240  97.4457 187.8828 0001702 139.0679 221.0676 15.05656639 43470

JSON: /api/v1/satellites/65240 · /tle

For live sub-satellite position, see the globe view (requires WebGL).

§ Visibility from observer

Set your observer location to see the next 7 days of passes ≥ 10°. The values pass through the URL so the page stays shareable.

No JS? Fill the form by hand. The geolocation button needs JavaScript.